Location: Unspecified
(0.0000°N, 0.0000°E)
Time: 22:32:16
(UTC+00:00)

Resurs 1-3 - Visible Passes

Search period start: 06 June 2023 00:00
Search period end: 16 June 2023 00:00
Orbit: 625 x 629 km, 97.8° (Epoch: 05 June)

Date Brightness Start Highest point End Pass type
(mag) Time Alt. Az. Time Alt. Az. Time Alt. Az.
06 Jun 5.5 20:00:16 21° N 20:00:16 21° N 20:01:49 10° N visible
07 Jun 5.7 20:19:55 21° NNW 20:19:55 21° NNW 20:21:22 10° NNW visible
08 Jun 6.3 20:39:32 16° NW 20:39:32 16° NW 20:40:31 10° NNW visible
09 Jun 5.8 19:21:52 12° NE 19:21:52 12° NE 19:22:21 10° NE visible
09 Jun 6.8 20:59:10 10° NW 20:59:10 10° NW 20:59:11 10° NW visible
10 Jun 5.5 19:41:30 18° NNE 19:41:30 18° NNE 19:42:57 10° NNE visible
11 Jun 5.3 20:01:08 23° N 20:01:08 23° N 20:02:53 10° N visible
12 Jun 5.6 20:20:46 22° NNW 20:20:46 22° NNW 20:22:23 10° NNW visible
13 Jun 6.2 20:40:24 17° NW 20:40:24 17° NW 20:41:30 10° NNW visible
14 Jun 5.7 19:22:43 13° NE 19:22:43 13° NE 19:23:28 10° NE visible
14 Jun 6.8 21:00:01 10° NW 21:00:01 10° NW 21:00:06 10° NW visible
15 Jun 5.4 19:42:20 20° NE 19:42:20 20° NE 19:44:00 10° NNE visible
